Location: Newark
(31.0436°N, 112.2008°E)
Time: 21:08:07
(UTC+00:00)

N. Korean satellite - Pass Details

Date: 01 February 2020
Orbit: 456 x 505 km, 97.2° (Epoch: 23 February)

Event Time Altitude Azimuth Distance (km) Brightness Sun altitude
Rises 21:38:00 0° 25° (NNE) 2,574 10.5 -22.7°
Reaches altitude 10° 21:40:17 10° 38° (NE) 1,695 9.7 -22.3°
Maximum altitude 21:43:26 27° 97° (E) 980 8.8 -21.6°
Drops below altitude 10° 21:46:36 10° 157° (SSE) 1,702 9.7 -20.9°
Sets 21:48:54 0° 169° (S) 2,586 10.5 -20.4°
